Regional Weather Roundup
Issued by NWS

Home | Current Version | Previous Version | Graphics & Text | Print | Product List | Glossary On
Versions: 1 2 3 4 5 6 7 8 9 10 11 12 13 14 15 16 17 18 19 20 21 22 23 24 25 26 27 28 29 30 31 32 33 34 35 36 37 38 39 40 41 42 43 44 45 46 47 48 49 50
792
ASUS43 KMPX 162310
RWRMN
WEATHER ROUNDUP FOR MINNESOTA
NATIONAL WEATHER SERVICE TWIN CITIES/CHANHASSEN MN
500 PM CST MON JAN 16 2017


NOTE: "FAIR" INDICATES FEW OR NO CLOUDS BELOW 12,000 FEET WITH NO
SIGNIFICANT WEATHER AND/OR OBSTRUCTIONS TO VISIBILITY. N/A MEANS
CURRENT SKY AND/OR WEATHER CONDITIONS ARE NOT AVAILABLE.

MNZ060>063-068>070-170000-
   Twin Cities Metro

CITY           SKY/WX    TMP DP  RH WIND       PRES   REMARKS
TWIN CITIES    CLOUDY    32  22  66 NE7       30.04F WCI  26
ST PAUL        CLOUDY    31  24  75 NE5       30.05F WCI  26
CRYSTAL        CLOUDY    32  21  64 NE5       30.03F WCI  27
BLAINE         MOCLDY    30  23  74 NE6       30.04S WCI  24
LAKEVILLE      MIX PCPN  28  25  86 NE7       30.02S WCI  21
EDEN PRAIRIE   CLOUDY    32  23  69 NE8       30.02F WCI  25
SOUTH ST PAUL  CLOUDY    32  23  70 NE3       30.04S
LAKE ELMO      CLOUDY    30  23  74 NE5       30.05S WCI  25
$$
MNZ001>005-007-008-013>017-022>024-027-028-170000-
   Northwest Minnesota

CITY           SKY/WX    TMP DP  RH WIND       PRES   REMARKS
BEMIDJI        CLEAR     24  17  73 CALM      30.00S
HALLOCK        CLOUDY     9   5  85 S3        30.04F
ROSEAU         CLOUDY    16   9  73 CALM      30.04S
WARROAD        CLOUDY    16   9  73 CALM      30.04S
THIEF RVR FALL CLOUDY    18   9  68 CALM      30.04S
CROOKSTON      CLOUDY    14  10  85 CALM      30.06S
FOSSTON        CLOUDY    16  10  79 CALM      30.02S
DETROIT LAKES  CLOUDY    27  18  69 CALM      30.02R
MOORHEAD       CLOUDY    16   9  73 CALM      30.06R
PARK RAPIDS    CLOUDY    20  13  74 CALM      30.00R
MAHNOMEN       FAIR      16  11  80 SW6       30.02R WCI   7
$$
MNZ006-009>011-018-025>026-170000-
   North Central Minnesota

CITY           SKY/WX    TMP DP  RH WIND       PRES   REMARKS
BAUDETTE       CLOUDY    20  11  68 E3        30.01S
FLAG ISLAND    CLOUDY    18   9  68 CALM      30.03S
INTL FALLS     CLOUDY    24  14  65 NE7       30.02S WCI  16
WASKISH        CLOUDY    19  14  79 CALM      30.02R
BIG FORK       CLEAR     28  19  69 CALM      30.01S
LONGVILLE      CLEAR     28  19  69 S5        30.02R WCI  23
GRAND RAPIDS   CLOUDY    30  20  66 SE7       30.03S WCI  23
CRANE LAKE     CLEAR     21  18  86 CALM      30.05S
ORR            CLEAR     28  19  69 CALM      29.99F
COOK           CLOUDY    28  21  74 CALM      30.02S
WALKER         FAIR      24  17  75 CALM      30.00S
$$
MNZ012-019>021-037-170000-
   Northeast Minnesota

CITY           SKY/WX    TMP DP  RH WIND       PRES   REMARKS
DULUTH         CLEAR     30  18  60 S5        30.04R WCI  25
ELY            CLOUDY    30  21  69 CALM      30.02S
HIBBING        CLOUDY    23  16  74 CALM      30.01F
EVELETH        CLOUDY    28  18  67 CALM      30.03S
DULUTH HARBOR  CLOUDY    30  21  69 CALM      30.08F
TWO HARBORS    CLEAR     30  19  64 SW5       30.04R WCI  25
SILVER BAY     CLEAR     30  23  74 CALM      30.03R
GRAND MARAIS     N/A     29  23  78 N3        30.08S
G MARAIS ARPRT CLEAR     27  19  74 CALM      30.03S
$$
MNZ029>031-032-039>041-046>048-054>057-064-170000-
   West Central Minnesota

CITY           SKY/WX    TMP DP  RH WIND       PRES   REMARKS
FERGUS FALLS   CLOUDY    19  14  79 W3        30.09R
WHEATON        CLOUDY    25  21  86 CALM      30.08R
MORRIS         CLEAR     25  18  74 E5        30.04R WCI  19
ALEXANDRIA     CLOUDY    28  18  66 N6        30.03R WCI  22
ELBOW LAKE     FAIR      22  17  83 CALM      30.04S FOG
WADENA         CLOUDY    23  18  80 CALM      30.02S
GLENWOOD       FOG       25  25 100 CALM      30.03S VSB<1/4
APPLETON       CLOUDY    25  19  80 CALM      30.04S
ORTONVILLE     CLOUDY    21  16  79 CALM      30.04S
MADISON        CLOUDY    21  18  86 N5        30.04S WCI  15
WILLMAR        CLOUDY    32  30  93 CALM      30.03F
$$
MNZ033>034-036-042>043-049>051-058-059-170000-
   Central Minnesota

CITY           SKY/WX    TMP DP  RH WIND       PRES   REMARKS
ST CLOUD       CLOUDY    26  22  84 N6        30.04S WCI  19
SAUK CENTRE    FOG       26  26  99 SE3       30.04S VSB<1/4
PAYNESVILLE    FOG       29  29 100 NE3       30.04R VSB 3/4
AITKIN         CLEAR     28  16  59 CALM      30.03S
PINE RIVER     CLEAR     25  18  74 SE3       30.06S
BRAINERD       CLEAR     28  17  63 CALM      30.04R
STAPLES        CLOUDY    23  16  74 CALM      30.03S
LONG PRAIRIE   FAIR      27  19  74 CALM      30.04R
LITTLE FALLS   CLOUDY    27  19  74 CALM      30.05S
LITCHFIELD     CLOUDY    32  28  86 NE3       30.03S
BUFFALO        CLOUDY    31  25  78 NE5       30.04F WCI  26
MAPLE LAKE     CLOUDY    31  25  77 E5        30.04F WCI  26
HUTCHINSON     CLOUDY    32  30  91 NE8       30.03S WCI  25
$$
MNZ037-044-045-052-053-170000-
   East Central Minnesota

CITY           SKY/WX    TMP DP  RH WIND       PRES   REMARKS
PRINCETON      CLOUDY    28  19  69 CALM      30.05S
MORA           CLOUDY    21  16  79 CALM      30.07S
CAMBRIDGE      CLOUDY    28  18  64 CALM      30.03S
RUSH CITY      CLOUDY    27  18  69 VRB3      30.06S
MOOSE LAKE     CLOUDY    30  19  64 CALM      30.04S
HINCKLEY       FAIR      23  19  86 CALM      30.06S
CLOQUET        CLEAR     30  18  59 CALM      30.04S
MCGREGOR       CLEAR     28  19  69 CALM      30.04S
$$
MNZ071>073-080-081-089-090-097-098-170000-
   Southwest Minnesota

CITY           SKY/WX    TMP DP  RH WIND       PRES   REMARKS
MONTEVIDEO     CLOUDY    27  23  86 NE3       30.05R
GRANITE FALLS  CLOUDY    32  29  88 N5        30.03S WCI  27
CANBY            N/A     27  21  79 CALM      30.03S
MARSHALL       CLOUDY    28  25  88 N3        30.02R
REDWOOD FALLS  CLOUDY    31  27  85 E5        30.01S FOG     WCI  26
OLIVIA         CLOUDY    32  30  93 NE7       30.01S WCI  26
PIPESTONE      CLOUDY    30  28  93 NE7       29.96S WCI  23
WINDOM         MIX PCPN  30  30 100 N8        29.97S WCI  23
WORTHINGTON    LGT SNOW  30  28  93 N10       29.96  FOG     WCI  21
JACKSON        DRIZZLE   30  30 100 NE8       29.96S WCI  23
TRACY          CLOUDY    30  28  94 NE7       30.00R FOG     WCI  23
SLAYTON        MIX PCPN  28  27  98 NE5       29.98S WCI  22
$$
MNZ065>067-074>077-082>085-091>093-170000-
   South Central Minnesota

CITY           SKY/WX    TMP DP  RH WIND       PRES   REMARKS
MANKATO        LGT SNOW  30  29  96 NE8       30.00S FOG     WCI  22
NEW ULM        MIX PCPN  30  28  93 NE8       30.00S WCI  23
ST JAMES       MIX PCPN  30  30 100 N6        30.00S WCI  24
FAIRMONT       MIX PCPN  31  30  96 NE8       29.97S FOG     WCI  23
GLENCOE        CLOUDY    32  31  94 NE5       30.01S WCI  28
FARIBAULT      LGT RAIN  30  28  93 NE5       30.00F WCI  25
OWATONNA       LGT RAIN  32  30  93 E6        29.98F WCI  26
WASECA         MIX PCPN  32  32 100 NE6       29.99F WCI  26
ALBERT LEA     MIX PCPN  32  32 100 NE7       29.96F WCI  26
$$
MNZ078>079-086>088-094>096-170000-
   Southeast Minnesota

CITY           SKY/WX    TMP DP  RH WIND       PRES   REMARKS
ROCHESTER      FRZ RAIN  30  30 100 NE10      29.98F FOG     WCI  21
RED WING       MIX PCPN  30  27  86 E3        30.03F
STANTON        MIX PCPN  31  28  88 NE6       30.00F WCI  25
DODGE CENTER   MIX PCPN  30  30 100 NE7       29.98F WCI  23
WINONA         MIX PCPN  32  30  93 CALM      30.04F
AUSTIN         MIX PCPN  30  28  93 NE8       29.96F WCI  23
PRESTON        MIX PCPN  30  29  95 NE6       29.97F WCI  24
$$
ABBREVIATIONS USED IN REMARKS
   TC - TEMPERATURES IN CELSIUS
  WCI - WIND CHILL INDEX
   HX - HEAT INDEX
  VSB - VISIBILITY
$$




USA.gov is the U.S. government's official web portal to all federal, state and local government web resources and services.